Time,TemperatureF,DewpointF,PressureIn,WindDirection,WindDirectionDegrees,WindSpeedMPH,WindSpeedGustMPH,Humidity,HourlyPrecipIn,Conditions,Clouds,dailyrainin,SolarRadiationWatts/m^2,SoftwareType,DateUTC
2017-04-24 00:01:00,49.8,45.9,30.09,WNW,303,0.0,0.0,86,0.00,,,0.00,0.00,Weather logger V3.0.,2017-04-24 04:01:00,
2017-04-24 00:08:00,49.6,46.0,30.08,WNW,302,0.0,0.0,87,0.00,,,0.00,0.00,Weather logger V3.0.,2017-04-24 04:08:00,
2017-04-24 00:13:00,49.3,45.7,30.08,WNW,303,0.0,0.0,87,0.00,,,0.00,0.00,Weather logger V3.0.,2017-04-24 04:13:00,
2017-04-24 00:18:00,49.1,45.5,30.08,WNW,303,0.0,0.0,87,0.00,,,0.00,0.00,Weather logger V3.0.,2017-04-24 04:18:00,
2017-04-24 00:23:00,48.9,45.5,30.09,WNW,302,0.0,0.0,88,0.00,,,0.00,0.00,Weather logger V3.0.,2017-04-24 04:23:00,
2017-04-24 00:28:00,48.7,45.7,30.08,WNW,302,0.0,0.0,89,0.00,,,0.00,0.00,Weather logger V3.0.,2017-04-24 04:28:00,
2017-04-24 00:33:00,48.6,46.0,30.08,WNW,295,0.0,0.0,91,0.00,,,0.00,0.00,Weather logger V3.0.,2017-04-24 04:33:00,
2017-04-24 00:38:00,48.4,45.9,30.09,WNW,291,0.0,0.0,91,0.00,,,0.00,0.00,Weather logger V3.0.,2017-04-24 04:38:00,
2017-04-24 00:43:00,48.2,46.0,30.08,West,274,0.0,0.0,92,0.00,,,0.00,0.00,Weather logger V3.0.,2017-04-24 04:43:00,
2017-04-24 00:44:00,48.2,46.0,30.08,West,277,0.0,0.0,92,0.00,,,0.00,0.00,Weather logger V3.0.,2017-04-24 04:44:00,
2017-04-24 00:49:00,47.8,45.7,30.08,NW,305,0.0,0.0,92,0.00,,,0.00,0.00,Weather logger V3.0.,2017-04-24 04:49:00,
2017-04-24 00:54:00,47.7,45.7,30.08,NW,305,0.0,0.0,93,0.00,,,0.00,0.00,Weather logger V3.0.,2017-04-24 04:54:00,
2017-04-24 00:59:00,47.5,45.5,30.08,WNW,294,0.0,0.0,93,0.00,,,0.00,0.00,Weather logger V3.0.,2017-04-24 04:59:00,
2017-04-24 01:05:00,47.1,45.1,30.09,WNW,294,0.0,0.0,93,0.00,,,0.00,0.00,Weather logger V3.0.,2017-04-24 05:05:00,
2017-04-24 01:11:00,46.8,45.1,30.08,WNW,294,0.0,0.0,94,0.00,,,0.00,0.00,Weather logger V3.0.,2017-04-24 05:11:00,
2017-04-24 01:16:00,46.6,45.0,30.08,WNW,294,0.0,0.0,94,0.00,,,0.00,0.00,Weather logger V3.0.,2017-04-24 05:16:00,
2017-04-24 01:21:00,46.2,45.0,30.09,WNW,294,0.0,0.0,95,0.00,,,0.00,0.00,Weather logger V3.0.,2017-04-24 05:21:00,
2017-04-24 01:26:00,45.9,44.6,30.08,WNW,294,0.0,0.0,95,0.00,,,0.00,0.00,Weather logger V3.0.,2017-04-24 05:26:00,
2017-04-24 01:31:00,45.7,44.6,30.08,WNW,294,0.0,0.0,96,0.00,,,0.00,0.00,Weather logger V3.0.,2017-04-24 05:31:00,
2017-04-24 01:36:00,45.3,44.2,30.09,WNW,294,0.0,0.0,96,0.00,,,0.00,0.00,Weather logger V3.0.,2017-04-24 05:36:00,
2017-04-24 01:41:00,45.0,44.2,30.08,NW,304,0.0,0.0,97,0.00,,,0.00,0.00,Weather logger V3.0.,2017-04-24 05:41:00,
2017-04-24 01:46:00,44.6,44.1,30.07,WNW,302,0.0,0.0,98,0.00,,,0.00,0.00,Weather logger V3.0.,2017-04-24 05:46:00,
2017-04-24 01:51:00,44.4,43.9,30.07,WNW,301,0.0,0.0,98,0.00,,,0.00,0.00,Weather logger V3.0.,2017-04-24 05:51:00,
2017-04-24 01:57:00,44.2,43.7,30.07,WNW,288,0.0,0.0,98,0.00,,,0.00,0.00,Weather logger V3.0.,2017-04-24 05:57:00,
2017-04-24 02:03:00,43.9,43.3,30.07,WNW,302,0.0,0.0,98,0.00,,,0.00,0.00,Weather logger V3.0.,2017-04-24 06:03:00,
2017-04-24 02:08:00,43.7,43.2,30.07,WNW,288,0.0,0.0,98,0.00,,,0.00,0.00,Weather logger V3.0.,2017-04-24 06:08:00,
2017-04-24 02:13:00,43.5,43.0,30.06,WNW,299,0.0,0.0,98,0.00,,,0.00,0.00,Weather logger V3.0.,2017-04-24 06:13:00,
2017-04-24 02:18:00,43.5,43.0,30.06,WNW,298,0.0,0.0,98,0.00,,,0.00,0.00,Weather logger V3.0.,2017-04-24 06:18:00,
2017-04-24 02:24:00,43.3,42.8,30.06,WNW,298,0.0,0.0,98,0.00,,,0.00,0.00,Weather logger V3.0.,2017-04-24 06:24:00,
2017-04-24 02:29:00,43.2,43.0,30.06,WNW,298,0.0,0.0,99,0.00,,,0.00,0.00,Weather logger V3.0.,2017-04-24 06:29:00,
2017-04-24 02:34:00,43.0,42.8,30.06,WNW,298,0.0,0.0,99,0.00,,,0.00,0.00,Weather logger V3.0.,2017-04-24 06:34:00,
2017-04-24 02:39:00,42.8,42.6,30.06,WNW,301,0.0,0.0,99,0.00,,,0.00,0.00,Weather logger V3.0.,2017-04-24 06:39:00,
2017-04-24 02:45:00,42.6,42.4,30.06,WNW,301,0.0,0.0,99,0.00,,,0.00,0.00,Weather logger V3.0.,2017-04-24 06:45:00,
2017-04-24 02:50:00,42.6,42.4,30.06,WNW,301,0.0,0.0,99,0.00,,,0.00,0.00,Weather logger V3.0.,2017-04-24 06:50:00,
2017-04-24 02:56:00,42.3,42.1,30.05,WNW,301,0.0,0.0,99,0.00,,,0.00,0.00,Weather logger V3.0.,2017-04-24 06:56:00,
2017-04-24 03:01:00,42.3,42.1,30.05,WNW,287,0.0,0.0,99,0.00,,,0.00,0.00,Weather logger V3.0.,2017-04-24 07:01:00,
2017-04-24 03:06:00,42.1,41.9,30.06,WNW,289,0.0,0.0,99,0.00,,,0.00,0.00,Weather logger V3.0.,2017-04-24 07:06:00,
2017-04-24 03:11:00,42.1,41.9,30.06,WNW,290,0.0,0.0,99,0.00,,,0.00,0.00,Weather logger V3.0.,2017-04-24 07:11:00,
2017-04-24 03:16:00,41.9,41.7,30.06,WNW,290,0.0,0.0,99,0.00,,,0.00,0.00,Weather logger V3.0.,2017-04-24 07:16:00,
2017-04-24 03:22:00,41.9,41.7,30.06,WNW,295,0.0,0.0,99,0.00,,,0.00,0.00,Weather logger V3.0.,2017-04-24 07:22:00,
2017-04-24 03:27:00,41.7,41.5,30.06,WNW,296,0.0,0.0,99,0.00,,,0.00,0.00,Weather logger V3.0.,2017-04-24 07:27:00,
2017-04-24 03:32:00,41.7,41.5,30.06,WNW,296,0.0,0.0,99,0.00,,,0.00,0.00,Weather logger V3.0.,2017-04-24 07:32:00,
2017-04-24 03:37:00,41.5,41.4,30.06,WNW,296,0.0,0.0,99,0.00,,,0.00,0.00,Weather logger V3.0.,2017-04-24 07:37:00,
2017-04-24 03:42:00,41.5,41.4,30.06,WNW,301,0.0,0.0,99,0.00,,,0.00,0.00,Weather logger V3.0.,2017-04-24 07:42:00,
2017-04-24 03:47:00,41.5,41.4,30.06,WNW,301,0.0,0.0,99,0.00,,,0.00,0.00,Weather logger V3.0.,2017-04-24 07:47:00,
2017-04-24 03:52:00,41.4,41.2,30.06,WNW,301,0.0,0.0,99,0.00,,,0.00,0.00,Weather logger V3.0.,2017-04-24 07:52:00,
2017-04-24 03:55:00,41.4,41.2,30.06,WNW,301,0.0,0.0,99,0.00,,,0.00,0.00,Weather logger V3.0.,2017-04-24 07:55:00,
2017-04-24 04:00:00,41.4,41.2,30.06,WNW,287,0.0,0.0,99,0.00,,,0.00,0.00,Weather logger V3.0.,2017-04-24 08:00:00,
2017-04-24 04:06:00,41.5,41.4,30.07,WNW,287,0.0,0.0,99,0.00,,,0.00,0.00,Weather logger V3.0.,2017-04-24 08:06:00,
2017-04-24 04:11:00,41.4,41.2,30.07,WNW,300,0.0,0.0,99,0.00,,,0.00,0.00,Weather logger V3.0.,2017-04-24 08:11:00,